Time,TemperatureF,DewpointF,PressureIn,WindDirection,WindDirectionDegrees,WindSpeedMPH,WindSpeedGustMPH,Humidity,HourlyPrecipIn,Conditions,Clouds,dailyrainin,SoftwareType,DateUTC
2013-10-02 00:01:00,67.5,65.0,29.97,SE,126,0.0,3.0,91,0.00,,,0.00,weatherlink.com 1.10,2013-10-02 04:01:00,
2013-10-02 00:16:00,67.4,65.0,29.97,East,98,0.0,2.0,91,0.00,,,0.00,weatherlink.com 1.10,2013-10-02 04:16:00,
2013-10-02 00:31:00,67.0,65.0,29.97,ESE,105,0.0,0.0,92,0.00,,,0.00,weatherlink.com 1.10,2013-10-02 04:31:00,
2013-10-02 00:46:00,66.7,64.0,29.98,East,87,0.0,0.0,92,0.00,,,0.00,weatherlink.com 1.10,2013-10-02 04:46:00,
2013-10-02 01:01:00,66.5,65.0,29.98,East,87,0.0,0.0,93,0.00,,,0.00,weatherlink.com 1.10,2013-10-02 05:01:00,
2013-10-02 01:16:00,66.0,64.0,29.98,East,87,0.0,0.0,93,0.00,,,0.00,weatherlink.com 1.10,2013-10-02 05:16:00,
2013-10-02 01:31:00,65.6,64.0,29.98,ESE,120,0.0,0.0,94,0.00,,,0.00,weatherlink.com 1.10,2013-10-02 05:31:00,
2013-10-02 01:46:00,65.6,64.0,29.98,ESE,120,0.0,0.0,95,0.00,,,0.00,weatherlink.com 1.10,2013-10-02 05:46:00,
2013-10-02 02:01:00,65.6,64.0,29.99,ESE,120,0.0,0.0,95,0.00,,,0.00,weatherlink.com 1.10,2013-10-02 06:01:00,
2013-10-02 02:16:00,65.7,64.0,29.99,ESE,120,0.0,0.0,95,0.00,,,0.00,weatherlink.com 1.10,2013-10-02 06:16:00,
2013-10-02 02:31:00,66.1,65.0,29.99,ESE,120,0.0,0.0,96,0.00,,,0.00,weatherlink.com 1.10,2013-10-02 06:31:00,
2013-10-02 02:46:00,66.4,65.0,29.99,East,94,1.0,1.0,96,0.00,,,0.00,weatherlink.com 1.10,2013-10-02 06:46:00,
2013-10-02 03:01:00,66.8,66.0,29.99,SE,128,1.0,2.0,96,0.00,,,0.00,weatherlink.com 1.10,2013-10-02 07:01:00,
2013-10-02 03:16:00,67.1,66.0,29.99,East,98,0.0,2.0,96,0.00,,,0.00,weatherlink.com 1.10,2013-10-02 07:16:00,
2013-10-02 03:31:00,67.2,66.0,29.99,East,82,0.0,2.0,96,0.00,,,0.00,weatherlink.com 1.10,2013-10-02 07:31:00,
2013-10-02 03:46:00,67.2,66.0,29.98,NE,38,0.0,0.0,95,0.00,,,0.00,weatherlink.com 1.10,2013-10-02 07:46:00,
2013-10-02 04:01:00,66.6,65.0,29.98,NE,39,0.0,0.0,95,0.00,,,0.00,weatherlink.com 1.10,2013-10-02 08:01:00,
2013-10-02 04:16:00,66.3,65.0,29.98,NE,38,0.0,0.0,96,0.00,,,0.00,weatherlink.com 1.10,2013-10-02 08:16:00,
2013-10-02 04:31:00,66.6,66.0,29.98,NW,312,0.0,0.0,96,0.00,,,0.00,weatherlink.com 1.10,2013-10-02 08:31:00,
2013-10-02 04:46:00,66.7,66.0,29.99,WSW,253,0.0,0.0,96,0.00,,,0.00,weatherlink.com 1.10,2013-10-02 08:46:00,
2013-10-02 05:01:00,66.9,66.0,29.99,West,262,0.0,0.0,96,0.00,,,0.00,weatherlink.com 1.10,2013-10-02 09:01:00,
2013-10-02 05:16:00,67.0,66.0,29.99,NNW,330,0.0,0.0,96,0.00,,,0.00,weatherlink.com 1.10,2013-10-02 09:16:00,
2013-10-02 05:46:00,66.9,66.0,29.99,East,79,0.0,2.0,97,0.00,,,0.00,weatherlink.com 1.10,2013-10-02 09:46:00,
2013-10-02 06:01:00,66.8,66.0,30.00,SSE,158,0.0,2.0,97,0.00,,,0.00,weatherlink.com 1.10,2013-10-02 10:01:00,
2013-10-02 06:16:00,66.7,66.0,30.00,North,11,0.0,5.0,97,0.00,,,0.00,weatherlink.com 1.10,2013-10-02 10:16:00,
2013-10-02 06:31:00,66.7,66.0,30.00,NNE,33,2.0,3.0,97,0.00,,,0.00,weatherlink.com 1.10,2013-10-02 10:31:00,
2013-10-02 06:46:00,66.6,66.0,30.00,ENE,59,1.0,2.0,97,0.00,,,0.00,weatherlink.com 1.10,2013-10-02 10:46:00,
2013-10-02 07:01:00,66.7,66.0,30.00,ENE,63,1.0,3.0,97,0.00,,,0.00,weatherlink.com 1.10,2013-10-02 11:01:00,
2013-10-02 07:16:00,66.6,66.0,30.00,NW,321,0.0,2.0,97,0.00,,,0.00,weatherlink.com 1.10,2013-10-02 11:16:00,
2013-10-02 07:31:00,66.5,66.0,30.01,WNW,288,1.0,2.0,97,0.00,,,0.00,weatherlink.com 1.10,2013-10-02 11:31:00,
2013-10-02 07:46:00,66.6,66.0,30.01,North,4,0.0,1.0,97,0.00,,,0.00,weatherlink.com 1.10,2013-10-02 11:46:00,
2013-10-02 08:01:00,66.7,66.0,30.01,South,176,1.0,1.0,97,0.00,,,0.00,weatherlink.com 1.10,2013-10-02 12:01:00,
2013-10-02 08:16:00,66.8,66.0,30.02,West,264,0.0,0.0,97,0.00,,,0.00,weatherlink.com 1.10,2013-10-02 12:16:00,
2013-10-02 08:31:00,66.9,66.0,30.02,ENE,76,0.0,0.0,97,0.00,,,0.00,weatherlink.com 1.10,2013-10-02 12:31:00,
2013-10-02 08:46:00,67.0,66.0,30.02,East,92,0.0,0.0,97,0.00,,,0.00,weatherlink.com 1.10,2013-10-02 12:46:00,
2013-10-02 09:01:00,67.1,66.0,30.02,East,91,0.0,0.0,97,0.00,,,0.00,weatherlink.com 1.10,2013-10-02 13:01:00,
2013-10-02 09:16:00,67.4,67.0,30.03,East,91,0.0,0.0,97,0.00,,,0.00,weatherlink.com 1.10,2013-10-02 13:16:00,
2013-10-02 09:31:00,67.4,67.0,30.03,East,91,0.0,0.0,97,0.00,,,0.00,weatherlink.com 1.10,2013-10-02 13:31:00,
2013-10-02 09:46:00,67.5,67.0,30.03,East,91,0.0,0.0,97,0.00,,,0.00,weatherlink.com 1.10,2013-10-02 13:46:00,
2013-10-02 10:01:00,67.8,67.0,30.03,East,91,0.0,0.0,98,0.00,,,0.00,weatherlink.com 1.10,2013-10-02 14:01:00,
2013-10-02 10:17:00,68.0,68.0,30.03,East,91,0.0,0.0,98,0.00,,,0.00,weatherlink.com 1.10,2013-10-02 14:17:00,
2013-10-02 10:32:00,68.2,68.0,30.04,East,92,0.0,0.0,98,0.00,,,0.00,weatherlink.com 1.10,2013-10-02 14:32:00,
2013-10-02 10:47:00,68.4,68.0,30.04,SE,138,0.0,0.0,97,0.01,,,0.01,weatherlink.com 1.10,2013-10-02 14:47:00,
2013-10-02 11:02:00,68.4,68.0,30.03,WNW,285,0.0,1.0,97,0.01,,,0.01,weatherlink.com 1.10,2013-10-02 15:02:00,
2013-10-02 11:17:00,68.5,68.0,30.03,ESE,114,0.0,1.0,97,0.01,,,0.01,weatherlink.com 1.10,2013-10-02 15:17:00,
2013-10-02 11:32:00,68.8,68.0,30.03,SE,134,0.0,1.0,97,0.01,,,0.01,weatherlink.com 1.10,2013-10-02 15:32:00,
2013-10-02 11:47:00,68.8,68.0,30.03,West,264,0.0,0.0,97,0.00,,,0.01,weatherlink.com 1.10,2013-10-02 15:47:00,
2013-10-02 12:02:00,68.7,68.0,30.03,East,96,0.0,0.0,97,0.00,,,0.01,weatherlink.com 1.10,2013-10-02 16:02:00,
2013-10-02 12:17:00,69.1,68.0,30.03,ESE,117,0.0,0.0,97,0.00,,,0.01,weatherlink.com 1.10,2013-10-02 16:17:00,
2013-10-02 12:32:00,69.4,69.0,30.02,ESE,120,0.0,0.0,97,0.00,,,0.01,weatherlink.com 1.10,2013-10-02 16:32:00,
2013-10-02 12:47:00,69.9,69.0,30.02,SE,126,0.0,0.0,96,0.00,,,0.01,weatherlink.com 1.10,2013-10-02 16:47:00,
2013-10-02 13:02:00,70.1,69.0,30.01,WSW,245,1.0,2.0,95,0.00,,,0.01,weatherlink.com 1.10,2013-10-02 17:02:00,
2013-10-02 13:17:00,70.5,69.0,30.01,SE,130,2.0,3.0,94,0.00,,,0.01,weatherlink.com 1.10,2013-10-02 17:17:00,
2013-10-02 13:32:00,70.7,69.0,30.01,East,90,0.0,2.0,93,0.00,,,0.01,weatherlink.com 1.10,2013-10-02 17:32:00,
2013-10-02 13:47:00,71.2,69.0,30.01,South,173,0.0,0.0,92,0.00,,,0.01,weatherlink.com 1.10,2013-10-02 17:47:00,
2013-10-02 14:02:00,71.2,69.0,30.01,ESE,115,0.0,0.0,92,0.00,,,0.01,weatherlink.com 1.10,2013-10-02 18:02:00,
2013-10-02 14:17:00,71.6,69.0,30.01,SE,127,0.0,0.0,91,0.00,,,0.01,weatherlink.com 1.10,2013-10-02 18:17:00,
2013-10-02 14:32:00,71.6,69.0,30.00,SE,127,0.0,0.0,90,0.00,,,0.01,weatherlink.com 1.10,2013-10-02 18:32:00,
2013-10-02 14:47:00,72.1,69.0,30.00,SE,127,0.0,0.0,90,0.00,,,0.01,weatherlink.com 1.10,2013-10-02 18:47:00,
2013-10-02 15:02:00,72.2,69.0,29.99,SE,127,0.0,0.0,89,0.00,,,0.01,weatherlink.com 1.10,2013-10-02 19:02:00,
2013-10-02 15:17:00,72.3,69.0,29.99,SE,127,0.0,0.0,90,0.00,,,0.01,weatherlink.com 1.10,2013-10-02 19:17:00,
2013-10-02 15:32:00,72.7,69.0,29.99,SW,216,0.0,0.0,88,0.00,,,0.01,weatherlink.com 1.10,2013-10-02 19:32:00,
2013-10-02 15:47:00,73.2,70.0,29.98,SW,215,0.0,0.0,88,0.00,,,0.01,weatherlink.com 1.10,2013-10-02 19:47:00,
2013-10-02 16:02:00,73.2,70.0,29.98,SW,215,0.0,0.0,88,0.00,,,0.01,weatherlink.com 1.10,2013-10-02 20:02:00,
2013-10-02 16:17:00,73.9,70.0,29.98,NNE,20,0.0,2.0,87,0.00,,,0.01,weatherlink.com 1.10,2013-10-02 20:17:00,
2013-10-02 16:32:00,74.2,70.0,29.97,SSW,204,0.0,3.0,86,0.00,,,0.01,weatherlink.com 1.10,2013-10-02 20:32:00,
2013-10-02 16:47:00,74.4,70.0,29.97,ESE,120,0.0,2.0,86,0.00,,,0.01,weatherlink.com 1.10,2013-10-02 20:47:00,
2013-10-02 17:02:00,75.1,70.0,29.96,SSW,198,0.0,1.0,84,0.00,,,0.01,weatherlink.com 1.10,2013-10-02 21:02:00,
2013-10-02 17:17:00,74.5,70.0,29.96,East,101,0.0,1.0,85,0.00,,,0.01,weatherlink.com 1.10,2013-10-02 21:17:00,
2013-10-02 17:32:00,74.1,70.0,29.96,ESE,120,0.0,1.0,86,0.00,,,0.01,weatherlink.com 1.10,2013-10-02 21:32:00,
2013-10-02 17:47:00,74.1,70.0,29.96,SSE,149,0.0,1.0,86,0.00,,,0.01,weatherlink.com 1.10,2013-10-02 21:47:00,
2013-10-02 18:02:00,73.6,70.0,29.97,ESE,123,0.0,2.0,87,0.00,,,0.01,weatherlink.com 1.10,2013-10-02 22:02:00,
2013-10-02 18:17:00,73.4,70.0,29.98,ESE,107,0.0,0.0,88,0.00,,,0.01,weatherlink.com 1.10,2013-10-02 22:17:00,
2013-10-02 18:32:00,73.2,70.0,29.98,ESE,107,0.0,0.0,89,0.00,,,0.01,weatherlink.com 1.10,2013-10-02 22:32:00,
2013-10-02 18:47:00,72.9,70.0,29.98,ESE,107,0.0,0.0,90,0.00,,,0.01,weatherlink.com 1.10,2013-10-02 22:47:00,
2013-10-02 19:02:00,72.0,69.0,29.98,ESE,107,0.0,0.0,90,0.00,,,0.01,weatherlink.com 1.10,2013-10-02 23:02:00,
2013-10-02 19:17:00,70.9,68.0,29.98,ESE,108,0.0,0.0,91,0.00,,,0.01,weatherlink.com 1.10,2013-10-02 23:17:00,
2013-10-02 19:32:00,69.7,67.0,29.97,ESE,107,0.0,0.0,92,0.00,,,0.01,weatherlink.com 1.10,2013-10-02 23:32:00,
2013-10-02 19:47:00,69.3,68.0,29.97,ESE,107,0.0,0.0,94,0.00,,,0.01,weatherlink.com 1.10,2013-10-02 23:47:00,
2013-10-02 20:02:00,68.7,67.0,29.97,ESE,107,0.0,0.0,94,0.00,,,0.01,weatherlink.com 1.10,2013-10-03 00:02:00,
2013-10-02 20:17:00,68.2,67.0,29.97,ESE,108,0.0,0.0,95,0.00,,,0.01,weatherlink.com 1.10,2013-10-03 00:17:00,
2013-10-02 20:32:00,68.2,67.0,29.97,ESE,107,0.0,0.0,95,0.00,,,0.01,weatherlink.com 1.10,2013-10-03 00:32:00,
2013-10-02 20:47:00,68.2,67.0,29.98,ESE,107,0.0,0.0,96,0.00,,,0.01,weatherlink.com 1.10,2013-10-03 00:47:00,
2013-10-02 21:03:00,68.0,67.0,29.97,ESE,107,0.0,0.0,96,0.00,,,0.01,weatherlink.com 1.10,2013-10-03 01:03:00,
2013-10-02 21:17:00,67.6,67.0,29.98,ESE,107,0.0,0.0,96,0.00,,,0.01,weatherlink.com 1.10,2013-10-03 01:17:00,
2013-10-02 21:32:00,67.5,66.0,29.98,ESE,107,0.0,0.0,96,0.00,,,0.01,weatherlink.com 1.10,2013-10-03 01:32:00,
2013-10-02 21:47:00,68.0,67.0,29.98,ESE,108,0.0,0.0,97,0.00,,,0.01,weatherlink.com 1.10,2013-10-03 01:47:00,
2013-10-02 22:02:00,68.9,68.0,29.98,SE,139,0.0,3.0,97,0.00,,,0.01,weatherlink.com 1.10,2013-10-03 02:02:00,
2013-10-02 22:17:00,69.4,69.0,29.97,ESE,111,0.0,4.0,97,0.00,,,0.01,weatherlink.com 1.10,2013-10-03 02:17:00,
2013-10-02 22:32:00,69.5,69.0,29.98,ESE,117,0.0,3.0,97,0.00,,,0.01,weatherlink.com 1.10,2013-10-03 02:32:00,
2013-10-02 22:47:00,69.3,68.0,29.97,ENE,77,0.0,0.0,96,0.00,,,0.01,weatherlink.com 1.10,2013-10-03 02:47:00,
2013-10-02 23:02:00,69.0,68.0,29.96,ENE,77,0.0,0.0,96,0.00,,,0.01,weatherlink.com 1.10,2013-10-03 03:02:00,
2013-10-02 23:17:00,68.6,68.0,29.98,SE,143,0.0,3.0,96,0.01,,,0.02,weatherlink.com 1.10,2013-10-03 03:17:00,
2013-10-02 23:32:00,68.1,67.0,29.97,SE,126,0.0,1.0,96,0.01,,,0.02,weatherlink.com 1.10,2013-10-03 03:32:00,
2013-10-02 23:47:00,67.6,67.0,29.96,SE,125,0.0,0.0,96,0.01,,,0.02,weatherlink.com 1.10,2013-10-03 03:47:00,